Dewpoint
53 53 53 53 53 52 51 52 51 51 52 53 53 54 54 53 54 48 39 35 41 55 51 24 24 23 20 21 28 31 28 26 25 26 27 28 31 34 33 32 31 32 33 34 33
53 53 53 53 53 53 52 51 51 52 51 53 53 53 53 53 49 39 47 46 52 53 29 18 14 19 17 19 23 27 25 23 25 26 26 27 29 30 32 31 30 32 33 32 30
52 52 52 53 53 53 52 51 51 51 52 52 53 53 53 53 43 24 55 53 51 53 28 23 21 18 13 17 21 25 24 21 21 25 28 29 28 30 30 30 30 30 30 28 29
53 52 52 52 52 52 52 52 51 51 51 52 53 53 54 49 22 34 57 55 55 39 30 16 18 16 13 13 17 19 21 23 21 24 27 27 28 28 31 31 29 29 29 28 28
53 52 52 52 52 52 52 52 51 51 51 51 53 54 49 37 27 42 57 54 42 35 30 26 16 15 13 11 12 17 16 17 19 21 22 23 23 25 26 28 25 26 27 26 27
51 50 51 51 52 52 52 51 50 51 50 51 52 53 41 24 34 39 43 42 33 31 28 28 21 21 18 16 16 14 13 15 16 16 17 16 16 17 19 22 22 28 24 23 25
50 50 50 51 52 52 51 51 50 51 51 52 53 49 35 18 34 38 42 35 33 31 24 24 25 21 19 16 18 17 17 15 15 15 14 14 14 14 17 21 22 34 27 26 26
51 50 51 51 52 52 51 51 51 52 52 52 53 47 28 21 31 35 34 31 32 33 31 25 25 21 20 21 17 15 14 9 9 11 12 14 13 16 19 21 22 25 32 33 25
50 50 50 50 51 51 51 52 53 53 53 53 50 45 27 42 31 24 28 19 19 23 27 22 22 20 20 17 14 17 7 9 8 16 14 15 11 13 19 21 22 22 25 25 22
49 50 50 50 51 51 51 51 55 54 50 49 46 41 32 26 29 28 24 21 18 18 20 24 20 19 16 14 8 10 11 10 11 13 15 14 14 16 18 18 20 21 23 24 23
49 50 50 50 51 51 50 44 39 38 43 30 28 31 29 31 32 24 19 19 20 20 16 19 16 14 14 16 15 14 13 13 13 14 17 15 15 16 18 17 18 19 21 25 25
49 50 50 50 51 51 47 34 36 37 31 31 30 30 30 31 24 22 23 19 20 17 16 15 14 14 14 14 14 14 14 14 15 15 18 17 16 17 18 18 17 18 21 22 26
49 50 50 50 51 48 38 37 39 37 32 25 27 24 23 27 22 19 19 19 18 16 14 14 11 12 13 13 14 15 15 15 15 18 18 16 15 16 13 15 16 20 22 25 27
49 50 50 50 46 40 36 40 38 38 28 21 22 23 25 24 21 21 20 19 17 15 14 14 13 14 14 14 14 14 14 16 17 17 12 16 10 14 13 15 17 21 22 23 23
50 50 50 49 44 37 39 40 38 40 21 18 18 21 18 19 18 19 20 20 18 17 16 14 14 14 15 15 16 15 18 18 18 18 17 13 10 12 14 16 18 19 19 22 26
50 51 50 47 46 39 40 41 41 31 21 19 17 17 18 19 18 19 20 20 20 18 18 17 17 16 15 17 19 20 19 20 20 17 10 9 8 3 9 13 16 19 17 22 30
49 50 48 41 39 42 41 39 32 25 21 19 17 18 18 18 20 21 22 22 19 18 18 17 16 17 21 19 23 22 21 16 12 8 8 15 12 11 16 13 14 16 19 27 32
49 49 49 44 43 44 40 34 28 24 20 20 18 19 20 20 21 21 22 20 22 21 17 17 14 18 23 19 18 20 21 15 9 4 0 14 10 11 16 16 21 24 28 29 30
48 48 47 46 43 42 35 28 29 24 21 21 22 21 19 21 21 19 21 19 19 23 22 18 19 22 23 22 22 19 21 21 18 15 9 9 10 16 21 20 24 25 28 29 32
45 44 42 43 45 42 32 28 26 27 26 25 22 21 19 18 20 20 20 20 21 25 27 23 23 20 21 25 24 24 20 19 18 14 8 6 10 11 19 17 21 24 26 30 32
46 38 43 43 45 36 35 27 29 30 30 26 25 24 22 20 20 21 20 20 22 22 26 24 25 21 22 22 19 20 19 20 19 20 18 13 10 23 21 23 25 26 28 31 33
42 32 42 43 34 34 30 28 32 26 26 25 27 26 24 23 23 23 22 23 23 24 24 25 28 22 20 22 23 24 22 21 30 24 23 23 19 22 25 24 26 28 29 32 35
30 35 43 42 32 25 24 21 24 23 23 27 27 27 27 27 27 25 25 25 25 26 25 28 27 24 21 24 28 25 24 23 24 27 27 24 17 25 26 26 27 28 30 33 36
31 27 27 34 31 25 21 20 21 28 28 29 28 27 27 27 28 27 25 26 27 27 33 36 32 28 25 22 31 28 26 24 25 31 23 19 20 22 25 26 26 29 32 33 35
30 31 33 24 23 27 29 23 21 21 25 27 24 27 26 25 22 23 24 24 24 29 30 32 28 26 21 20 22 22 24 25 27 26 25 23 21 23 25 26 28 31 33 32 33
30 26 28 24 28 27 28 20 20 21 26 17 21 21 24 27 26 25 24 23 24 25 27 30 27 26 22 21 21 22 22 22 21 20 20 21 23 25 26 27 29 31 32 32 32
33 37 32 30 21 25 22 18 19 25 21 22 25 25 26 27 27 26 27 28 28 27 27 27 31 29 25 22 25 22 20 20 21 22 22 21 23 25 28 29 31 32 33 34 35
Lifted_Index
9 10 10 11 11 12 12 12 13 13 12 12 11 11 11 10 9 8 9 10 10 9 10 11 11 10 8 7 6 5 4 4 4 3 3 3 4 4 4 3 2 2 3 4 5
10 10 10 11 11 11 12 12 13 13 12 12 11 11 11 10 9 8 8 9 9 9 10 11 10 9 8 7 6 5 4 4 3 3 3 3 3 4 4 3 3 2 3 4 5
10 10 11 11 11 11 12 12 12 13 12 12 12 11 10 9 8 8 8 8 8 8 10 11 10 9 8 7 6 6 5 4 3 3 3 3 3 3 4 3 3 2 3 4 5
10 10 11 11 11 11 12 12 12 12 12 12 11 10 9 8 7 7 6 6 7 8 9 10 10 9 8 7 7 6 5 5 4 3 3 3 3 3 3 3 3 2 3 4 5
10 11 11 11 12 12 12 12 12 12 12 12 11 10 8 7 7 6 5 6 7 8 8 8 9 8 8 7 7 6 6 6 5 5 4 4 4 4 4 4 3 3 3 4 5
11 11 11 12 12 12 12 12 12 12 12 11 10 9 8 8 7 6 6 6 7 8 8 8 8 8 7 7 7 7 7 6 6 6 5 5 5 5 5 5 4 3 3 5 5
11 11 11 12 12 12 11 11 11 11 11 11 10 9 8 8 8 7 6 7 7 7 7 7 7 7 7 7 7 7 7 6 6 6 6 6 5 5 6 6 5 4 3 4 5
12 11 11 12 12 11 11 11 10 10 10 10 8 8 8 8 8 7 7 7 8 7 7 7 7 7 7 7 6 6 6 5 5 6 6 5 5 5 6 7 6 4 3 4 5
12 11 11 12 12 11 10 10 9 9 9 8 7 6 7 7 8 8 8 8 8 8 8 8 7 7 6 6 5 5 5 5 5 6 6 5 5 5 6 7 7 5 4 4 4
11 11 11 11 11 10 10 9 8 8 8 7 6 6 6 7 7 8 8 9 9 8 8 7 7 6 6 5 5 5 5 5 5 5 5 5 5 5 6 7 7 6 5 5 5
11 11 11 11 10 10 9 9 8 8 7 7 7 7 7 7 7 8 8 8 8 7 7 7 6 6 5 5 5 5 5 5 5 5 5 5 5 6 6 6 7 7 6 6 6
11 11 11 11 10 9 9 8 8 8 7 7 7 7 7 7 7 7 7 7 7 7 6 6 6 6 6 6 6 5 5 5 5 5 5 5 5 6 6 6 6 6 6 6 6
12 12 12 11 10 9 9 8 8 8 7 7 7 7 7 7 7 7 7 7 6 6 6 6 6 6 6 6 5 5 5 5 5 5 5 5 5 5 6 6 6 6 6 6 7
12 13 12 11 10 9 9 9 9 7 6 6 7 7 7 7 7 7 7 6 6 6 6 5 6 6 5 5 5 4 5 5 5 5 5 4 4 5 6 6 6 6 6 7 7
12 13 12 10 9 9 9 9 8 6 4 5 6 7 7 6 6 6 6 6 6 5 5 5 5 5 5 5 4 4 4 5 5 5 4 4 4 4 5 5 6 6 6 7 7
12 12 11 10 9 9 9 8 7 5 4 5 6 6 6 6 5 5 5 5 5 5 4 4 4 5 4 4 4 4 4 3 3 3 3 4 4 4 4 5 5 6 6 6 6
11 10 10 9 9 8 8 7 5 4 4 5 6 6 5 5 5 5 5 4 4 4 4 3 3 3 4 3 3 2 2 1 1 1 2 3 3 3 4 5 5 6 6 6 5
9 9 9 8 8 8 7 6 4 4 5 5 5 5 5 4 4 4 4 4 4 3 3 2 2 2 3 2 1 1 0 0 -0 0 1 2 2 3 3 4 4 5 5 5 5
8 7 7 8 8 8 6 5 5 5 6 6 5 5 4 4 4 4 4 4 3 3 3 2 2 2 2 2 1 0 0 0 0 1 1 1 1 2 2 3 3 4 4 5 5
7 6 6 8 8 7 6 5 5 6 6 5 5 4 4 4 4 4 4 4 3 3 3 2 2 2 2 2 1 1 0 0 0 0 0 0 0 1 2 2 2 3 3 4 4
7 7 7 7 7 6 5 5 6 6 6 6 5 5 4 4 3 3 3 3 3 3 2 2 1 1 1 1 1 0 0 0 -0 -0 -0 -0 -0 0 1 1 1 2 2 3 3
8 7 7 7 7 6 6 6 7 7 6 6 6 5 5 4 3 3 3 3 3 2 2 1 1 1 0 -0 -0 -0 -0 -0 -1 -0 -0 -0 0 -0 0 0 1 2 2 2 2
8 8 8 8 7 7 7 7 7 7 7 7 6 6 6 5 4 3 3 3 3 2 1 1 0 0 -0 -1 -0 -0 -0 -1 -1 -0 -0 0 0 0 0 0 1 1 2 2 2
8 8 9 8 8 7 6 6 6 7 7 7 7 6 6 5 4 4 4 3 3 2 1 1 0 -0 -0 -0 -0 -0 -0 -1 -1 -0 0 0 0 0 0 0 1 1 1 1 2
9 9 9 8 8 7 6 6 6 6 7 7 7 7 7 6 6 5 5 4 3 2 1 1 0 0 0 0 0 -0 -0 -0 -0 -0 0 1 1 0 0 1 1 1 1 1 1
11 10 9 8 8 7 6 6 6 7 7 8 8 8 8 7 7 6 6 5 4 3 2 1 1 1 1 0 0 0 -0 -0 -0 -0 0 1 1 0 0 1 1 1 1 1 1
12 11 10 9 8 7 7 6 6 7 8 9 9 9 8 8 8 7 7 6 5 4 2 2 1 1 1 0 0 0 -0 -0 -0 0 0 0 0 0 0 0 1 1 1 0 0